Regional Weather Roundup
Issued by NWS

Home | Current Version | Previous Version | Text Only | Print | Product List | Glossary On
Versions: 1 2 3 4 5 6 7 8 9 10 11 12 13 14 15 16 17 18 19 20 21 22 23 24 25 26 27 28 29 30 31 32 33 34 35 36 37 38 39 40 41 42 43 44 45 46 47 48 49 50
000
ASUS43 KOAX 260302
RWRNE

WEATHER ROUNDUP FOR NEBRASKA
NATIONAL WEATHER SERVICE OMAHA NE
1000 PM CDT SAT OCT 25 2014

NOTES: SATELLITE DATA IS BEING USED TO AUGMENT CLOUD COVER ABOVE
       12000 FEET.
       "FAIR" INDICATES FEW OR NO CLOUDS BELOW 12,000 FEET WITH NO
       SIGNIFICANT WEATHER AND/OR OBSTRUCTIONS TO VISIBILITY.

  * THESE STATIONS DO NOT REPORT WEATHER SUCH AS RAIN...SNOW OR FOG.

NEZ001>004-019>022-054>056-260400-
NEBRASKA PANHANDLE

CITY           SKY/WX    TMP DP  RH WIND       PRES   REMARKS
SCOTTSBLUFF    CLEAR     48  37  65 E8        29.97F
ALLIANCE       CLEAR     47  34  60 SE9       29.98S
CHADRON        CLEAR     56  37  49 S8        29.88F
KIMBALL        CLEAR     52  33  49 S8        30.00F
SIDNEY         CLEAR     50  36  58 S8        30.00F
$$

NEZ057>060-069>072-079>082-260400-
SOUTHWEST NEBRASKA

CITY           SKY/WX    TMP DP  RH WIND       PRES   REMARKS
NORTH PLATTE   CLEAR     50  43  77 E8        29.99S
IMPERIAL       CLEAR     60  48  64 E6        29.97S
LEXINGTON      CLEAR     59  46  62 E10       29.98S
MCCOOK         CLEAR     61  52  72 E10       29.95F
OGALLALA       CLEAR     55  47  74 E3        29.98S
$$

NEZ005>010-023>029-035>040-094-260400-
NORTH CENTRAL NEBRASKA

CITY           SKY/WX    TMP DP  RH WIND       PRES   REMARKS
VALENTINE      CLEAR     53  34  48 E8        29.99F
AINSWORTH      CLEAR     47  36  66 E8        30.01F
BROKEN BOW     CLEAR     56  42  59 E5        30.01S
O`NEILL        CLEAR     51  37  57 E7        30.04S
ORD            CLEAR     43  39  86 CALM      30.00S
THEDFORD       CLEAR     53  42  65 SE7       29.99F
$$

NEZ041-046>049-061>064-073>077-083>087-260400-
SOUTH CENTRAL NEBRASKA

CITY           SKY/WX    TMP DP  RH WIND       PRES   REMARKS
GRAND ISLAND   CLEAR     58  44  60 E8        30.00F
AURORA         CLEAR     57  42  57 E9        30.00F
HASTINGS       CLEAR     60  43  53 E9        29.99F
HEBRON         CLEAR     58  46  64 E6        29.99S
HOLDREGE       CLEAR     58  46  64 E13       29.97F
KEARNEY *      CLEAR     55  45  67 E10       29.99F
YORK           CLEAR     57  45  62 E10       30.01F
$$

NEZ011>018-030>034-042>045-260400-
NORTHEAST NEBRASKA

CITY           SKY/WX    TMP DP  RH WIND       PRES   REMARKS
NORFOLK        CLEAR     51  38  60 SE5       30.03F
ALBION         CLEAR     53  37  56 CALM      30.02F
BLAIR          CLEAR     58  40  51 NE8       30.04F
COLUMBUS *     CLEAR     52  37  58 E7        30.03F
FREMONT        CLEAR     59  39  47 E5        30.04S
TEKAMAH        CLEAR     50  41  71 N6        30.04F
WAYNE          CLEAR     45  37  76 CALM      30.05S
$$

NEZ050>053-065>068-078-088>093-260400-
SOUTHEAST NEBRASKA

CITY           SKY/WX    TMP DP  RH WIND       PRES   REMARKS
LINCOLN        CLEAR     58  45  62 E9        30.02S
OMAHA EPPLEY   CLEAR     59  41  51 CALM      30.04S
BEATRICE       CLEAR     60  46  59 E6        30.00S
FALLS CITY     CLEAR     60  47  61 E5        30.00R
NEBRASKA CITY  CLEAR     61  39  45 E7        30.02S
PLATTSMOUTH    CLEAR     58  40  51 NE7       30.04S
$$

NEZ044-045-051>053-067-260400-
OMAHA AREA

CITY           SKY/WX    TMP DP  RH WIND       PRES   REMARKS
OMAHA EPPLEY   CLEAR     59  41  51 CALM      30.04S
BLAIR          CLEAR     58  40  51 NE8       30.04F
FREMONT        CLEAR     59  39  47 E5        30.04S
OFFUTT AFB     CLEAR     56  46  69 NE6       30.03S
PLATTSMOUTH    CLEAR     58  40  51 NE7       30.04S
WAHOO          FAIR      55  41  59 E7        30.02F
$$



USA.gov is the U.S. government's official web portal to all federal, state and local government web resources and services.